Tracking 27405 objects as of 1-Jun-2023
HD Live streaming from Space Station
objects crossing your sky now

STARLINK-5201

Track STARLINK-5201 now!
10-day predictions
STARLINK-5201 is classified as:


NORAD ID: 54076
Int'l Code: 2022-136AB
Perigee: 546.1 km
Apogee: 547.6 km
Inclination: 53.2 °
Period: 95.4 minutes
Semi major axis: 6917 km
RCS: Unknown
Launch date: October 20, 2022
Source: United States (US)
Launch site: AIR FORCE EASTERN TEST RANGE (AFETR)
Your satellite tracking list
Your tracking list is empty




NASA's NSSDC Master Catalog

Two Line Element Set (TLE):
1 54076U 22136AB  23151.43979267  .00001024  00000-0  82394-4 0  9992
2 54076  53.2150 212.3545 0001103  68.9581 291.1529 15.08847012 33881
Source of the keplerian elements: AFSPC